Weather History for Colorado Springs, CO

Change the Weather History Date:

Friday, February 28, 2014

  Actual Average Record
Temperature  
Mean Temperature 43 °F 35 °F  
Max Temperature 60 °F 48 °F 74 °F (2006)
Min Temperature 25 °F 22 °F -16 °F (1962)
Degree Days  
Heating Degree Days 22 30  
Month to date heating degree days 951 918  
Since 1 July heating degree days 4487 4563  
Cooling Degree Days 0 0  
Month to date cooling degree days 0 0  
Year to date cooling degree days 0 0  
Moisture  
Dew Point 16 °F    
Average Humidity 47    
Maximum Humidity 81    
Minimum Humidity 12    
Precipitation  
Precipitation 0.00 in 0.02 in 0.55 in (1931)
Month to date precipitation 0.22 0.34  
Year to date precipitation 0.89 0.66  
Snow  
Snow 0.00 in 0.20 in 7.00 in (1931)
Month to date snowfall 2.6 4.9  
Since 1 July snowfall 23.3 24.0  
Snow Depth 0.00 in    
Sea Level Pressure  
Sea Level Pressure 29.65 in    
Wind  
Wind Speed 9 mph (SW)    
Max Wind Speed 24 mph    
Max Gust Speed 29 mph    
Visibility 10 miles    
Events      
T = Trace of Precipitation, MM = Missing Value Source: NWS Daily Summary

Daily Weather History Graph

Daily Weather History Graph

Search for Another Location

Airport:

Trip Planner

Search our weather history database for the weather conditions in past years. The results will help you decide how hot, cold, wet, or windy it might be!

Date:

Astronomy

Feb. 28, 2014 Rise Set
Actual Time 6:32 AM MST 5:50 PM MST
Civil Twilight 6:05 AM MST 6:17 PM MST
Nautical Twilight 5:34 AM MST 6:48 PM MST
Astronomical Twilight 5:04 AM MST 7:19 PM MST
Moon 5:48 AM MST (2/28) 5:30 PM MST (2/28)
Length of Visible Light 12h 11m
Length of Day
11h 18m
Waning Crescent, 0% of the Moon is Illuminated
Feb 28
Waning Crescent
Mar 1
New
Mar 8
First Quarter
Mar 16
Full
Mar 23
Last Quarter

Hourly Weather History & Observations

Time (MST) Temp. Windchill Dew Point Humidity Pressure Visibility Wind Dir Wind Speed Gust Speed Precip Events Conditions
12:54 AM 45.0 °F 38.9 °F 25.0 °F 46% 29.47 in 10.0 mi North 12.7 mph - N/A   Mostly Cloudy
1:54 AM 42.1 °F 35.7 °F 24.1 °F 49% 29.49 in 10.0 mi NNW 11.5 mph - N/A   Scattered Clouds
2:54 AM 44.1 °F 37.4 °F 19.9 °F 38% 29.45 in 10.0 mi NNW 13.8 mph - N/A   Scattered Clouds
3:54 AM 46.0 °F 38.5 °F 17.1 °F 31% 29.46 in 10.0 mi NNW 19.6 mph 27.6 mph N/A   Partly Cloudy
4:54 AM 46.0 °F 40.6 °F 15.1 °F 29% 29.49 in 10.0 mi NW 11.5 mph 21.9 mph N/A   Partly Cloudy
5:54 AM 42.1 °F 37.7 °F 16.0 °F 35% 29.54 in 10.0 mi WNW 6.9 mph - N/A   Partly Cloudy
6:54 AM 37.0 °F - 19.0 °F 48% 29.64 in 10.0 mi Calm Calm - N/A   Partly Cloudy
7:54 AM 48.0 °F - 15.1 °F 27% 29.62 in 10.0 mi Variable 5.8 mph - N/A   Partly Cloudy
8:27 AM 46.9 °F - 19.0 °F 33% 29.72 in 10.0 mi WSW 15.0 mph - N/A   Partly Cloudy
8:34 AM 46.9 °F - 19.0 °F 33% 29.73 in 10.0 mi WSW 12.7 mph - N/A   Partly Cloudy
8:54 AM 48.9 °F - 18.0 °F 29% 29.67 in 10.0 mi SSW 11.5 mph - N/A   Partly Cloudy
9:54 AM 52.0 °F - 16.0 °F 24% 29.67 in 10.0 mi Variable 4.6 mph - N/A   Partly Cloudy
10:54 AM 55.0 °F - 15.1 °F 21% 29.66 in 10.0 mi SSE 10.4 mph - N/A   Partly Cloudy
11:54 AM 57.0 °F - 12.9 °F 18% 29.63 in 10.0 mi SSE 15.0 mph - N/A   Mostly Cloudy
12:39 PM 57.0 °F - 9.0 °F 15% 29.74 in 10.0 mi WNW 15.0 mph 18.4 mph N/A   Mostly Cloudy
12:54 PM 57.0 °F - 10.0 °F 15% 29.62 in 10.0 mi NNW 11.5 mph 20.7 mph N/A   Mostly Cloudy
1:54 PM 57.0 °F - 8.1 °F 14% 29.61 in 10.0 mi Variable 5.8 mph - N/A   Mostly Cloudy
2:54 PM 57.9 °F - 8.1 °F 14% 29.60 in 10.0 mi South 10.4 mph - N/A   Mostly Cloudy
3:54 PM 57.9 °F - 8.1 °F 14% 29.58 in 10.0 mi ENE 9.2 mph - N/A   Mostly Cloudy
4:54 PM 57.9 °F - 5.0 °F 12% 29.59 in 10.0 mi South 4.6 mph - N/A   Mostly Cloudy
5:54 PM 52.0 °F - 10.0 °F 19% 29.67 in 10.0 mi SSW 21.9 mph - N/A   Mostly Cloudy
6:54 PM 46.0 °F 43.9 °F 19.0 °F 34% 29.74 in 10.0 mi ENE 4.6 mph - N/A   Mostly Cloudy
7:54 PM 39.9 °F 32.1 °F 23.0 °F 51% 29.76 in 10.0 mi East 13.8 mph - N/A   Scattered Clouds
8:54 PM 32.0 °F 24.8 °F 24.1 °F 73% 29.84 in 10.0 mi ESE 8.1 mph - N/A   Scattered Clouds
9:54 PM 30.0 °F - 23.0 °F 75% 29.85 in 10.0 mi Calm Calm - N/A   Partly Cloudy
10:54 PM 26.1 °F 19.4 °F 21.9 °F 84% 29.84 in 10.0 mi SSE 5.8 mph - N/A   Partly Cloudy
11:54 PM 25.0 °F 17.1 °F 21.9 °F 88% 29.84 in 7.0 mi SE 6.9 mph - N/A   Scattered Clouds